Regional Weather Roundup
Issued by NWS

Home | Current Version | Previous Version | Text Only | Print | Product List | Glossary On
Versions: 1 2 3 4 5 6 7 8 9 10 11 12 13 14 15 16 17 18 19 20 21 22 23 24 25 26 27 28 29 30 31 32 33 34 35 36 37 38 39 40 41 42 43 44 45 46 47 48 49 50
000
ASUS43 KDMX 200606
RWRIA

WEATHER ROUNDUP FOR IOWA
NATIONAL WEATHER SERVICE DES MOINES IA
100 AM CDT SUN AUG 20 2017

NOTE: "FAIR" INDICATES FEW OR NO CLOUDS BELOW 12,000 FEET WITH NO
SIGNIFICANT WEATHER AND/OR OBSTRUCTIONS TO VISIBILITY.

* - THESE STATIONS ARE NOT NWS STATIONS...THUS NOT UNDER NWS
QUALITY CONTROL.  THEY ALSO DO NOT REPORT WEATHER SUCH
AS PRECIPITATION OR FOG.

IAZ001>003-012>014-020>022-031>034-043>046-200700-
   NORTHWEST IOWA

CITY           SKY/WX    TMP DP  RH WIND       PRES   REMARKS
CARROLL *      CLOUDY    68  66  94 SE8       29.91F
CHEROKEE *     LGT RAIN  70  67  90 S7        29.91F
DENISON *      CLOUDY    72  63  73 E3        29.94F
LE MARS *      CLOUDY   102 N/A N/A E13G24    29.85F
ORANGE CITY *  LGT RAIN  70  64  83 S15G21    29.85F
SHELDON *      CLOUDY    75  59  57 SE6G21    29.84F
SIOUX CITY     CLOUDY    73  65  75 E23       29.82F
6HR MIN TEMP:  71; 6HR MAX TEMP:  80; 6HR PCP: TRACE;

SPENCER        CLOUDY    73  63  70 S10       29.88F
6HR MIN TEMP:  67; 6HR MAX TEMP:  79; 6HR PCP: TRACE;

STORM LAKE *   CLOUDY    72  63  73 S8G16     29.91F
$$

IAZ055>058-069>071-079>083-090>094-200700-
   SOUTHWEST IOWA

CITY           SKY/WX    TMP DP  RH WIND       PRES   REMARKS
ATLANTIC *     CLOUDY    68  63  83 N8        29.88F
AUDUBON *      CLOUDY    66  63  88 CALM      29.91F
CLARINDA *       N/A     70  63  78 S5        29.90F
COUNCIL BLFS * LGT RAIN  72  70  94 CALM      29.93R
CRESTON *      CLOUDY    68  61  77 SE7       29.93F
HARLAN  *      CLOUDY    70  63  78 CALM      29.93R
LAMONI         CLOUDY    73  61  65 S6        29.93F
6HR MIN TEMP:  73; 6HR MAX TEMP:  89;

RED OAK *      CLOUDY    75  64  69 SE15G21   29.85F
SHENANDOAH *   CLOUDY    73  66  78 SE10G20   29.85F
$$

IAZ047>049-059>061-072>074-084-200700-
   CENTRAL IOWA

CITY           SKY/WX    TMP DP  RH WIND       PRES   REMARKS
AMES           CLOUDY    68  67  96 SE6       29.91F
6HR MIN TEMP:  65; 6HR MAX TEMP:  80;

ANKENY *       CLOUDY    70  66  88 S6        29.92F
BOONE *        CLOUDY    68  66  94 S7        29.90F
CHARITON *     PTCLDY    68  61  77 SE5       29.94S
DES MOINES     CLOUDY    72  64  76 SE9       29.91F
6HR MIN TEMP:  71; 6HR MAX TEMP:  83;

GRINNELL*      CLOUDY    66  63  89 SE5       29.95F
KNOXVILLE *    CLOUDY    68  64  88 S5        29.93S
MARSHALLTOWN   CLOUDY    67  64  90 SE8       29.92F
6HR MIN TEMP:  65; 6HR MAX TEMP:  78;

NEWTON *       PTCLDY    66  64  94 SE7       29.94S
PELLA *        CLOUDY    67  64  87 SE3       29.95S
$$

IAZ004>006-015-016-023>025-035-036-200700-
   NORTH CENTRAL IOWA

CITY           SKY/WX    TMP DP  RH WIND       PRES   REMARKS
ALGONA *       CLOUDY    70  66  88 S10       29.92S
CLARION *      CLOUDY    68  68 100 S7        29.93R
ESTHERVILLE    CLOUDY    65  65 100 S5        29.90R
6HR MIN TEMP:  65; 6HR MAX TEMP:  75;

FORT DODGE *   CLOUDY    72  63  73 S7        29.93R
MASON CITY     CLOUDY    64  63  96 S7        29.94F
6HR MIN TEMP:  63; 6HR MAX TEMP:  76;

FOREST CITY *    N/A     64  63  94 S5        29.93R
WEBSTER CITY * CLOUDY    68  66  94 S3        29.92R
IOWA FALLS *     N/A     67  64  90 SE5       29.95R
$$

IAZ007>011-017>019-026>030-037>042-050>054-066-200700-
   NORTHEAST IOWA

CITY           SKY/WX    TMP DP  RH WIND       PRES   REMARKS
CEDAR RAPIDS   CLEAR     64  62  93 SE5       29.96S
6HR MIN TEMP:  62; 6HR MAX TEMP:  78;

CHARLES CITY * CLOUDY    64  64 100 SE7       29.94F
CLINTON *      CLEAR     62  60  93 E5        29.98S
DECORAH *      PTCLDY    64  63  94 VRB5      29.96S
DUBUQUE        CLEAR     62  59  90 CALM      29.98S
6HR MIN TEMP:  61; 6HR MAX TEMP:  75;

MONTICELLO *   CLEAR     59  59 100 CALM      29.97S
OELWEIN *      CLEAR     63  63 100 SE7       29.96F
WATERLOO       CLOUDY    64  61  90 SE6       29.93F
6HR MIN TEMP:  62; 6HR MAX TEMP:  78;

$$

IAZ064-065-067-068-078-200700-
   EAST CENTRAL IOWA

CITY           SKY/WX    TMP DP  RH WIND       PRES   REMARKS
DAVENPORT      CLEAR     64  61  90 SE6       29.99S
6HR MIN TEMP:  61; 6HR MAX TEMP:  78;

IOWA CITY      CLEAR     68  63  84 CALM      29.97S
6HR MIN TEMP:  67; 6HR MAX TEMP:  81;

MT. PLEASANT * CLEAR     64  64  98 SE3       29.96S
MUSCATINE *    CLEAR     64  63  94 CALM      29.96F
QUAD CITIES    CLEAR     63  59  87 E5        29.97S
6HR MIN TEMP:  63; 6HR MAX TEMP:  79;

$$

IAZ062-063-075>077-085>089-095>099-200700-
   SOUTHEAST IOWA

CITY           SKY/WX    TMP DP  RH WIND       PRES   REMARKS
BURLINGTON     CLEAR     68  65  90 SE5       29.95F
6HR MIN TEMP:  68; 6HR MAX TEMP:  80;

FAIRFIELD *    CLEAR     66  63  88 SE6       29.95S
FORT MADISON * CLEAR     72  66  83 SE5       29.96F
KEOKUK *       CLEAR     73  68  83 SE10      29.95S
OSKALOOSA *      N/A     66  64  94 SE3       29.96R
OTTUMWA        CLEAR     67  66  97 SE5       29.94S
6HR MIN TEMP:  66; 6HR MAX TEMP:  83;

WASHINGTON *   CLEAR     63  63 100 SE5       29.96F
$$

ABBREVIATIONS USED IN REMARKS
   TC - TEMPERATURES IN CELSIUS
  WCI - WIND CHILL INDEX
   HX - HEAT INDEX
  VSB - VISIBILITY
$$





USA.gov is the U.S. government's official web portal to all federal, state and local government web resources and services.